FW2969 Weather Reports


time (UTC)temp
F
wind
direction
speed
knots
gust
knots
rain 1hr
in
rain 24hr
in
rain mn
in
humidity
%
barometer
mb
20260510090041 75 216 0.0 5.2 0.00 0.00 0.00 36 1014.6
20260510084529 74 281 0.9 7.8 0.00 0.00 0.00 42 1014.6
20260510083030 73 245 0.9 5.2 0.00 0.00 0.00 46 1014.6
20260510081533 73 255 0.9 7.0 0.00 0.00 0.00 44 1014.7
20260510080030 73 314 2.6 7.0 0.00 0.00 0.00 40 1014.8
20260510074526 74 261 0.0 3.5 0.00 0.00 0.00 47 1014.7
20260510073025 73 306 0.0 4.3 0.00 0.00 0.00 44 1014.7
20260510071524 75 316 1.7 4.3 0.00 0.00 0.00 35 1014.5
20260510070030 74 284 0.9 7.8 0.00 0.00 0.00 29 1014.5
20260510064523 75 303 0.0 2.6 0.00 0.00 0.00 27 1014.5
20260510063019 73 13 0.0 8.7 0.00 0.00 0.00 30 1014.6
20260510061515 73 346 0.9 2.6 0.00 0.00 0.00 36 1014.7
20260510060012 72 320 0.0 1.7 0.00 0.00 0.00 42 1014.7
20260510054511 72 295 0.0 2.6 0.00 0.00 0.00 41 1014.6
20260510053009 71 348 0.0 1.7 0.00 0.00 0.00 39 1014.5
20260510051509 71 43 0.0 0.0 0.00 0.00 0.00 39 1014.6
20260510050008 71 55 0.0 0.9 0.00 0.00 0.00 37 1014.5
20260510044504 70 55 0.0 0.0 0.00 0.00 0.00 38 1014.5
20260510043111 69 55 0.0 0.0 0.00 0.00 0.00 40 1014.4
20260510041556 66 55 0.0 0.0 0.00 0.00 0.00 40 1014.3
20260510040059 63 54 0.0 0.0 0.00 0.00 0.00 47 1014.3
20260510034558 63 54 0.0 0.0 0.00 0.00 0.00 48 1014.2
20260510033117 63 52 0.0 0.9 0.00 0.00 0.00 54 1014.1
20260510031601 63 57 0.0 1.7 0.00 0.00 0.00 54 1014.1
20260510030056 63 38 0.0 0.9 0.00 0.00 0.00 52 1014.0
20260510024548 63 5 0.0 0.9 0.00 0.00 0.00 49 1013.9
20260510023047 63 351 0.0 1.7 0.00 0.00 0.00 47 1013.9
20260510021547 62 74 0.0 2.6 0.00 0.00 0.00 46 1013.9
20260510020049 62 65 0.0 1.7 0.00 0.00 0.00 45 1014.0
20260510014548 62 73 0.0 1.7 0.00 0.00 0.00 47 1014.1
20260510013043 62 65 0.0 0.9 0.00 0.00 0.00 47 1014.1
20260510011545 62 64 0.0 0.9 0.00 0.00 0.00 47 1014.2
20260510010041 61 337 0.0 3.5 0.00 0.00 0.00 48 1014.2
20260510004540 61 109 0.0 0.9 0.00 0.00 0.00 52 1014.2
20260510003039 61 57 0.0 1.7 0.00 0.00 0.00 54 1014.3
20260510001539 61 34 0.0 0.9 0.00 0.00 0.00 58 1014.4
20260510000056 61 43 0.0 1.7 0.00 0.00 0.00 58 1014.3
20260509234546 62 24 0.0 0.9 0.00 0.00 0.00 53 1014.5
20260509233033 62 23 0.0 0.9 0.00 0.00 0.00 50 1014.4
20260509231530 63 23 0.0 0.0 0.00 0.00 0.00 50 1014.4
20260509230033 63 23 0.0 1.7 0.00 0.00 0.00 50 1014.4
20260509224529 63 349 0.0 1.7 0.00 0.00 0.00 51 1014.3
20260509223028 63 357 0.0 1.7 0.00 0.00 0.00 52 1014.4
20260509221527 64 268 0.0 3.5 0.00 0.00 0.00 52 1014.5
20260509220025 63 322 0.0 6.1 0.00 0.00 0.00 52 1014.5
20260509214529 63 331 0.0 2.6 0.00 0.00 0.00 55 1014.6
20260509213021 62 20 0.0 0.9 0.00 0.00 0.00 56 1014.6
20260509211519 63 18 0.0 0.0 0.00 0.00 0.00 57 1014.5
20260509210016 62 18 0.0 0.0 0.00 0.00 0.00 57 1014.5
20260509204523 63 18 0.0 0.9 0.00 0.00 0.00 58 1014.5
20260509203016 63 338 0.0 0.9 0.00 0.00 0.00 57 1014.5
20260509201516 64 338 0.0 1.7 0.00 0.00 0.00 55 1014.6
20260509200015 64 354 0.0 0.9 0.00 0.00 0.00 54 1014.6
20260509194518 65 359 0.0 0.9 0.00 0.00 0.00 49 1014.6
20260509193014 65 359 0.0 0.0 0.00 0.00 0.00 47 1014.6
20260509191518 65 359 0.0 1.7 0.00 0.00 0.00 51 1014.8
20260509190013 66 44 0.0 2.6 0.00 0.00 0.00 50 1014.7
20260509184515 66 324 0.0 0.0 0.00 0.00 0.00 45 1014.6
20260509183013 67 324 0.0 0.0 0.00 0.00 0.00 44 1014.6
20260509181511 68 323 0.0 1.7 0.00 0.00 0.00 39 1014.4
20260509180014 67 320 0.0 1.7 0.00 0.00 0.00 39 1014.4
20260509174510 67 332 0.0 1.7 0.00 0.00 0.00 42 1014.3
20260509173009 67 341 0.0 0.9 0.00 0.00 0.00 44 1014.4
20260509171509 68 341 0.0 1.7 0.00 0.00 0.00 46 1014.3
20260509170009 68 353 0.0 1.7 0.00 0.00 0.00 46 1014.2
20260509164508 68 43 0.0 1.7 0.00 0.00 0.00 45 1014.1
20260509163007 68 61 0.0 0.9 0.00 0.00 0.00 49 1014.1
20260509161507 68 353 0.0 2.6 0.00 0.00 0.00 52 1014.0
20260509160007 69 13 0.0 1.7 0.00 0.00 0.00 52 1014.1
20260509154508 70 357 0.0 3.5 0.00 0.00 0.00 49 1014.2
20260509153005 72 3 0.0 5.2 0.00 0.00 0.00 45 1014.0
20260509151505 73 303 0.9 5.2 0.00 0.00 0.00 42 1014.0
20260509150003 73 334 0.0 5.2 0.00 0.00 0.00 39 1014.0
20260509144507 73 331 0.9 5.2 0.00 0.00 0.00 42 1014.0
20260509143000 74 275 1.7 7.8 0.00 0.00 0.00 40 1014.2
20260509141600 74 310 0.9 7.8 0.00 0.00 0.00 39 1014.2
20260509140107 75 298 3.5 8.7 0.00 0.00 0.00 38 1014.0
20260509134612 75 332 1.7 9.6 0.00 0.00 0.00 35 1014.2
20260509133056 76 49 0.9 6.1 0.00 0.00 0.00 36 1014.3
20260509131555 75 305 0.0 5.2 0.00 0.00 0.00 39 1014.3
20260509130059 74 346 1.7 7.8 0.00 0.00 0.00 40 1014.3
20260509124551 74 305 2.6 7.8 0.00 0.00 0.00 41 1014.4
20260509123106 74 250 1.7 7.0 0.00 0.00 0.00 45 1014.4
20260509121607 74 351 1.7 8.7 0.00 0.00 0.00 47 1014.5
20260509120046 74 292 1.7 7.8 0.00 0.00 0.00 47 1014.5
20260509114545 73 283 1.7 7.8 0.00 0.00 0.00 54 1014.7
20260509113046 74 299 0.9 5.2 0.00 0.00 0.00 55 1014.8
20260509111557 73 281 0.9 8.7 0.00 0.00 0.00 56 1014.8
20260509110041 73 327 1.7 7.8 0.00 0.00 0.00 52 1014.9
20260509104545 73 259 2.6 7.8 0.00 0.00 0.00 52 1014.9
20260509103048 73 291 2.6 6.1 0.00 0.00 0.00 57 1014.9
20260509101608 73 236 1.7 7.8 0.00 0.00 0.00 57 1015.0
20260509100042 73 283 1.7 7.8 0.00 0.00 0.00 53 1015.0
20260509094539 73 263 0.9 6.1 0.00 0.00 0.00 54 1015.1
20260509093034 73 255 0.9 7.0 0.00 0.00 0.00 56 1015.2
20260509091540 73 315 1.7 5.2 0.00 0.00 0.00 54 1015.3